Location: Chèvreville
(49.1099°N, 2.8495°E)
Time: 15:14:03
(UTC+00:00)

SO-50 - Pass Details

Date: 10 December 2023
Orbit: 608 x 661 km, 64.6° (Epoch: 28 February)

Event Time Altitude Azimuth Distance (km) Brightness Sun altitude
Exits shadow 05:09:03 14° 358° (N) 1,813 ? -22.2°
Drops below altitude 10° 05:10:36 10° 17° (NNE) 2,037 ? -22.0°
Sets 05:13:55 0° 42° (NE) 2,934 ? -21.4°
